This is the latest recevied weather packets stored in our database for station/object IU1VDW-13. If no packets are shown the sender has not sent any weather packets the latest 10 day(s).
| Time | Temp. | Humidity | Pressure | Rain* | Wind** | Luminosity | Snow |
|---|---|---|---|---|---|---|---|
| 1777751321 | 20.56° C | 51% | 1020.8 hPa | - | - | - | - |
| 1777748923 | 20.56° C | 48% | 1020.5 hPa | - | - | - | - |
| 1777746526 | 21.11° C | 49% | 1020.2 hPa | - | - | - | - |
| 1777744128 | 21.11° C | 48% | 1020.2 hPa | - | - | - | - |
| 1777741731 | 21.11° C | 49% | 1020.3 hPa | - | - | - | - |
| 1777739334 | 21.11° C | 49% | 1020.6 hPa | - | - | - | - |
| 1777736937 | 21.11° C | 49% | 1021 hPa | - | - | - | - |
| 1777734539 | 20.56° C | 50% | 1021.3 hPa | - | - | - | - |
| 1777732142 | 20.56° C | 50% | 1022.1 hPa | - | - | - | - |
| 1777729745 | 21.11° C | 48% | 1022.8 hPa | - | - | - | - |
| 1777727348 | 20.56° C | 50% | 1023.4 hPa | - | - | - | - |
| 1777724950 | 20.56° C | 50% | 1024 hPa | - | - | - | - |
| 1777722552 | 20.56° C | 52% | 1024.7 hPa | - | - | - | - |
| 1777720155 | 20.56° C | 51% | 1025.5 hPa | - | - | - | - |
| 1777717758 | 20° C | 52% | 1026 hPa | - | - | - | - |
| 1777715361 | 20.56° C | 55% | 1026.7 hPa | - | - | - | - |
| 1777712964 | 20.56° C | 59% | 1027.1 hPa | - | - | - | - |
| 1777710567 | 20.56° C | 62% | 1027.4 hPa | - | - | - | - |
| 1777708169 | 20.56° C | 62% | 1027.6 hPa | - | - | - | - |
| 1777705772 | 20.56° C | 63% | 1027.6 hPa | - | - | - | - |
| 1777703375 | 20.56° C | 62% | 1027.7 hPa | - | - | - | - |
| 1777700978 | 20.56° C | 62% | 1027.7 hPa | - | - | - | - |
| 1777698581 | 20.56° C | 62% | 1027.5 hPa | - | - | - | - |
| 1777696184 | 20.56° C | 62% | 1027.3 hPa | - | - | - | - |
| 1777693786 | 21.11° C | 62% | 1027.2 hPa | - | - | - | - |
* Rain since midnight (hover to see other rain measurements)
** Current wind speed in m/s (hover to see current wind gust speed)